Starlink 31349

operational
NORAD ID: 59317 Int'l Des: 2024-056 Owner: SPXS Country: US Constellation: starlink
LEOCIRCULAR

About Starlink 31349

Description loading...

Live Position

Loading 3D Globe...

Upcoming Passes

Altitude History

Altitude vs Time

uPlot chart will show altitude changes over time

Two-Line Element Set

1 59317U 24056X 25347.30405747 .00000994 00000-0 45642-4 0 9990
2 59317 43.0036 358.4922 0001589 262.3769 97.6902 15.27578272 98011
Epoch: Dec 13, 2025 • Age: 24 hours

Current Status

Altitude 485.7 km
Velocity 7.63 km/s
Sub-Earth Point 36.31°N, 72.37°W
Launch Date Mar 24, 2024
Age 1.7 years
Type internet

Technical Details

Classification Payload
Mass 730.00 kg
Dry Mass 700.00 kg
Total Mass 730.00 kg
Length 0.30 m
Diameter 4.10 m
Span 29.00 m
Shape Box + pan
Manufacturer SPXS
Bus Type Starlink V2M
Phase Status In Orbit
Owner/State SPXS/US

Large Constellations

Loading constellations...